ムルコス彗星

124P/Mrkos (2020)

English version
Home page
Updated on January 25, 2020

---------------------------------------------------------------------

・ プロフィール

・ 写真集

・ 軌道要素

Epoch 2020 Apr. 21.0 TT = JDT 2458960.5
T 2020 Apr. 26.88940 TT                                 Williams
q   1.6475227            (2000.0)            P               Q
n   0.16307525     Peri.  183.85531     -0.99734513     +0.07274096
a   3.3180074      Node     0.37084     -0.04453533     -0.57254576
e   0.5034602      Incl.   31.51282     -0.05761334     -0.81663952
P   6.04
From 1855 observations 1991 Mar. 15-2019 Oct. 31, mean residual 0".5.

・ 星図

・ 光度変化

        m1 = 15.8 + 5 logΔ + 5.0 log r

---------------------------------------------------------------------

軌道要素はM.P.E.C. 2019-V116に掲載されたものです。
星図はステラナビゲータ Ver.10 (アストロアーツ) で作成したものです。
光度グラフはComet for Windowsで作成したものです。

---------------------------------------------------------------------

Copyright(C) Seiichi Yoshida (comet@aerith.net). All rights reserved.